{"data":{"norad_id":62828,"epoch":"2026-09-21T20:35:35.871648Z","epoch_age_seconds":50814,"freshness":"FRESH","line1":"1 62828U 25018Y   26264.85805407  .00006107  00000+0  19170-3 0  9993","line2":"2 62828  53.1575 111.2483 0001006  96.8991 263.2126 15.34405528 94252","mean_motion":15.34405528,"eccentricity":0.0001006,"inclination_deg":53.1575,"raan_deg":111.2483,"arg_perigee_deg":96.8991,"mean_anomaly_deg":263.2126,"bstar":0.0001917,"rev_number":9425,"period_min":93.847419976188,"perigee_km":461.99862300019,"apogee_km":463.37499675073,"semimajor_km":6840.8238098755,"source":"CELESTRAK","updated_at":"2026-09-22T09:00:49.670669Z"}}